Weather History for KCMX - October, 2012

Change the Weather History Date:

Thursday, October 11, 2012

  Actual Average (WUND) Record (WUND)
Temperature  
Mean Temperature 37 °F -  
Max Temperature 42 °F - - (-1)
Min Temperature 32 °F - - (-1)
Degree Days  
Heating Degree Days 28    
Moisture  
Dew Point 30 °F    
Average Humidity 80    
Maximum Humidity 100    
Minimum Humidity 51    
Precipitation  
Precipitation 0.18 in - - ()
Sea Level Pressure  
Sea Level Pressure 29.95 in    
Wind  
Wind Speed 9 mph (West)    
Max Wind Speed 26 mph    
Max Gust Speed 34 mph    
Visibility 8 miles    
Events Rain , Snow    
Averages and records for this station are not official NWS values.
T = Trace of Precipitation, MM = Missing Value Source: NWS Daily Summary

Daily Weather History Graph

Daily Weather History Graph

Search for Another Location

Airport or City:

Trip Planner

Search our weather history database for the weather conditions in past years. The results will help you decide how hot, cold, wet, or windy it might be!

Date:

Astronomy

Oct. 11, 2012 Rise Set
Actual Time 8:07 AM EDT 7:12 PM EDT
Civil Twilight 7:36 AM EDT 7:43 PM EDT
Nautical Twilight 7:01 AM EDT 8:18 PM EDT
Astronomical Twilight 6:25 AM EDT 8:54 PM EDT
Moon 3:30 AM EDT (10/11) 5:02 PM EDT (10/11)
Length of Visible Light 12h 07m
Length of Day
11h 05m
Waning Crescent, 18% of the Moon is Illuminated
Oct 11
Waning Crescent
Oct 15
New
Oct 21
First Quarter
Oct 29
Full
Nov 6
Last Quarter

Hourly Weather History & Observations

Time (EDT) Temp. Windchill Dew Point Humidity Pressure Visibility Wind Dir Wind Speed Gust Speed Precip Events Conditions
12:53 AM 37.9 °F 33.5 °F 28.0 °F 68% 29.96 in 10.0 mi West 5.8 mph - N/A   Overcast
1:53 AM 37.9 °F 33.5 °F 30.0 °F 73% 29.95 in 10.0 mi WSW 5.8 mph - N/A   Overcast
2:53 AM 37.0 °F 31.0 °F 30.9 °F 79% 29.94 in 10.0 mi WSW 8.1 mph - 0.00 in Rain Light Rain
3:12 AM 35.6 °F 30.7 °F 30.2 °F 81% 29.90 in 6.0 mi SSW 5.8 mph - 0.01 in Snow Light Snow
3:53 AM 34.0 °F 28.0 °F 33.1 °F 96% 29.91 in 6.0 mi South 6.9 mph - 0.02 in Snow Light Snow
4:17 AM 33.8 °F 27.7 °F 33.8 °F 100% 29.87 in 6.0 mi SSW 6.9 mph - 0.01 in Snow Light Snow
4:26 AM 33.8 °F 27.0 °F 32.0 °F 93% 29.87 in 5.0 mi SSW 8.1 mph - 0.01 in Snow Light Snow
4:46 AM 33.8 °F 29.6 °F 32.0 °F 93% 29.86 in 2.5 mi SW 4.6 mph - 0.01 in Snow Light Snow
4:53 AM 33.1 °F 30.0 °F 32.0 °F 96% 29.89 in 2.0 mi SW 3.5 mph - 0.01 in Snow Light Snow
5:11 AM 33.8 °F 30.8 °F 32.0 °F 93% 29.85 in 1.8 mi SW 3.5 mph - 0.01 in Snow Light Snow
5:20 AM 33.8 °F 30.8 °F 32.0 °F 93% 29.86 in 2.0 mi SW 3.5 mph - 0.01 in Snow Light Snow
5:34 AM 32.0 °F 28.7 °F 32.0 °F 100% 29.85 in 1.8 mi SW 3.5 mph - 0.01 in Snow Light Snow
5:53 AM 32.0 °F 28.7 °F 32.0 °F 100% 29.89 in 1.8 mi SW 3.5 mph - 0.01 in Snow Light Snow
6:17 AM 32.0 °F 28.7 °F 32.0 °F 100% 29.85 in 3.0 mi WSW 3.5 mph - 0.00 in Snow Light Snow
6:53 AM 33.1 °F 26.9 °F 32.0 °F 96% 29.87 in 8.0 mi WSW 6.9 mph - 0.00 in Snow Light Snow
7:00 AM 33.8 °F 27.7 °F 32.0 °F 93% 29.84 in 9.0 mi West 6.9 mph - N/A Snow Light Snow
7:53 AM 34.0 °F 28.0 °F 33.1 °F 96% 29.88 in 6.0 mi WNW 6.9 mph - 0.04 in Snow Light Snow
8:04 AM 33.8 °F 27.7 °F 32.0 °F 93% 29.84 in 2.0 mi West 6.9 mph - 0.01 in Snow Light Snow
8:14 AM 33.8 °F 26.4 °F 32.0 °F 93% 29.84 in 6.0 mi West 9.2 mph - N/A Snow Light Snow
8:53 AM 34.0 °F 26.6 °F 33.1 °F 96% 29.88 in 10.0 mi WNW 9.2 mph - 0.06 in Rain Light Rain
9:03 AM 33.8 °F 26.4 °F 33.8 °F 100% 29.85 in 10.0 mi WNW 9.2 mph - 0.01 in Rain Light Rain
9:23 AM 35.6 °F 28.0 °F 33.8 °F 93% 29.85 in 10.0 mi WNW 10.4 mph - 0.03 in   Overcast
9:53 AM 37.9 °F 30.0 °F 35.1 °F 89% 29.89 in 10.0 mi WNW 12.7 mph - 0.04 in   Overcast
10:51 AM 41.0 °F 32.5 °F 33.8 °F 76% 29.87 in 10.0 mi NW 17.3 mph 24.2 mph N/A   Mostly Cloudy
10:53 AM 41.0 °F 32.8 °F 34.0 °F 76% 29.91 in 10.0 mi NW 16.1 mph 24.2 mph N/A   Mostly Cloudy
11:00 AM 39.2 °F 30.2 °F 33.8 °F 81% 29.88 in 10.0 mi NW 17.3 mph - N/A   Mostly Cloudy
11:11 AM 39.2 °F 30.5 °F 33.8 °F 81% 29.88 in 10.0 mi NW 16.1 mph 26.5 mph N/A   Mostly Cloudy
11:53 AM 39.9 °F 30.0 °F 30.9 °F 70% 29.93 in 10.0 mi WNW 21.9 mph 29.9 mph N/A   Overcast
12:22 PM 39.2 °F 29.8 °F 30.2 °F 70% 29.91 in 10.0 mi WNW 18.4 mph 29.9 mph N/A   Overcast
12:34 PM 39.2 °F 28.7 °F 30.2 °F 70% 29.92 in 10.0 mi WNW 23.0 mph 29.9 mph N/A   Overcast
12:53 PM 42.1 °F 31.9 °F 30.9 °F 65% 29.96 in 10.0 mi NW 26.5 mph 33.4 mph N/A   Overcast
1:17 PM 39.2 °F 29.3 °F 30.2 °F 70% 29.94 in 10.0 mi WNW 20.7 mph 31.1 mph N/A   Overcast
1:53 PM 41.0 °F 30.7 °F 27.0 °F 57% 29.98 in 10.0 mi WNW 25.3 mph 32.2 mph N/A   Overcast
2:53 PM 41.0 °F 31.1 °F 28.9 °F 62% 30.00 in 10.0 mi WNW 23.0 mph 31.1 mph N/A   Overcast
3:53 PM 39.2 °F 28.7 °F 28.4 °F 65% 30.00 in 10.0 mi WNW 23.0 mph 34.5 mph N/A   Overcast
4:53 PM 39.0 °F 29.6 °F 30.9 °F 73% 30.06 in 10.0 mi NW 18.4 mph 31.1 mph 0.00 in Rain Light Rain
5:53 PM 39.2 °F 29.8 °F 28.4 °F 65% 30.06 in 10.0 mi NNW 18.4 mph 26.5 mph N/A   Mostly Cloudy
6:53 PM 37.9 °F 28.2 °F 23.0 °F 55% 30.13 in 10.0 mi NW 18.4 mph 28.8 mph N/A   Mostly Cloudy
7:53 PM 37.9 °F 30.0 °F 23.0 °F 55% 30.17 in 10.0 mi NW 12.7 mph 20.7 mph N/A   Mostly Cloudy
8:53 PM 37.4 °F 28.5 °F 21.2 °F 52% 30.16 in 10.0 mi NNW 15.0 mph 26.5 mph N/A   Mostly Cloudy
9:53 PM 37.9 °F 30.9 °F 21.0 °F 51% 30.23 in 10.0 mi North 10.4 mph - N/A   Overcast
10:53 PM 35.1 °F 28.6 °F 21.0 °F 57% 30.25 in 10.0 mi NNW 8.1 mph - N/A   Partly Cloudy
11:53 PM 33.8 °F 28.6 °F 19.4 °F 56% 30.23 in 10.0 mi NNW 5.8 mph - N/A   Clear